Location: Killam
(52.7910°N, 111.8608°W)
Time: 17:19:35
(UTC+00:00)

SR - Visible Passes

Search period start: 16 February 2026 00:00
Search period end: 26 February 2026 00:00
Orbit: 574 x 847 km, 66.7° (Epoch: 15 February)

Date Brightness Start Highest point End Pass type
(mag) Time Alt. Az. Time Alt. Az. Time Alt. Az.
16 Feb ? 11:20:28 11° SE 11:22:21 13° ESE 11:24:29 10° ENE visible
16 Feb ? 12:59:33 14° SW 13:03:12 85° SE 13:07:44 10° NE visible
17 Feb ? 12:06:37 27° S 12:08:23 41° ESE 12:12:36 10° NE visible
17 Feb ? 13:46:03 10° WSW 13:50:06 38° NW 13:54:24 10° NNE visible
18 Feb ? 11:13:34 20° ESE 11:13:49 20° ESE 11:17:02 10° ENE visible
18 Feb ? 12:52:38 27° SW 12:54:57 69° NW 12:59:30 10° NE visible
19 Feb ? 11:59:27 55° SSE 12:00:01 61° SE 12:04:29 10° NE visible
19 Feb ? 13:38:30 12° W 13:42:01 30° NNW 13:46:07 10° NNE visible
20 Feb ? 11:06:11 27° E 11:06:11 27° E 11:09:11 10° NE visible
20 Feb ? 12:45:14 34° W 12:46:45 50° NW 12:51:14 10° NE visible
21 Feb ? 10:12:51 11° ENE 10:12:51 11° ENE 10:13:09 10° ENE visible
21 Feb ? 11:51:54 82° ENE 11:51:54 82° ENE 11:56:17 10° NE visible
21 Feb ? 13:30:56 13° WNW 13:33:58 25° NNW 13:37:51 10° NNE visible
22 Feb ? 10:58:30 30° ENE 10:58:30 30° ENE 11:01:09 10° NE visible
22 Feb ? 12:37:33 33° WNW 12:38:37 38° NW 12:42:57 10° NNE visible
23 Feb ? 10:05:03 12° ENE 10:05:03 12° ENE 10:05:37 10° ENE visible
23 Feb ? 11:44:06 58° N 11:44:06 58° N 11:48:02 10° NE visible
23 Feb ? 13:23:08 13° WNW 13:25:59 21° NNW 13:29:36 10° NNE visible
24 Feb ? 10:50:36 30° NE 10:50:36 30° NE 10:53:01 10° NE visible
24 Feb ? 12:29:39 28° NW 12:30:31 30° NNW 12:34:40 10° NNE visible
25 Feb ? 09:57:05 13° ENE 09:57:05 13° ENE 09:57:44 10° NE visible
25 Feb ? 11:36:07 42° N 11:36:07 42° N 11:39:46 10° NE visible
25 Feb ? 13:15:09 11° WNW 13:18:01 19° NNW 13:21:24 10° NNE visible
